TimeMST,TemperatureF,Dew PointF,Humidity,Sea Level PressureIn,VisibilityMPH,Wind Direction,Wind SpeedMPH,Gust SpeedMPH,PrecipitationIn,Events,Conditions,WindDirDegrees,DateUTC
12:53 AM,18.0,10.0,71,30.40,10.0,West,12.7,-,N/A,,Clear,280,2013-12-12 07:53:00
1:53 AM,16.0,9.0,74,30.39,10.0,West,11.5,-,N/A,,Clear,270,2013-12-12 08:53:00
2:53 AM,17.1,9.0,71,30.37,10.0,WSW,8.1,-,N/A,,Clear,250,2013-12-12 09:53:00
3:53 AM,14.0,9.0,80,30.36,10.0,West,12.7,-,N/A,,Clear,280,2013-12-12 10:53:00
4:53 AM,15.1,10.0,80,30.37,10.0,West,11.5,-,N/A,,Clear,280,2013-12-12 11:53:00
5:53 AM,12.0,7.0,80,30.39,10.0,West,11.5,-,N/A,,Clear,270,2013-12-12 12:53:00
6:53 AM,17.1,10.0,74,30.39,10.0,WSW,4.6,-,N/A,,Clear,250,2013-12-12 13:53:00
7:53 AM,16.0,10.0,77,30.38,10.0,West,6.9,-,N/A,,Clear,280,2013-12-12 14:53:00
8:53 AM,21.9,12.9,68,30.37,10.0,West,4.6,-,N/A,,Clear,280,2013-12-12 15:53:00
9:53 AM,28.9,14.0,54,30.34,10.0,SSE,5.8,-,N/A,,Clear,150,2013-12-12 16:53:00
10:53 AM,39.0,15.1,38,30.27,10.0,Calm,Calm,-,N/A,,Clear,0,2013-12-12 17:53:00
11:44 AM,46.0,14.0,28,30.17,0.2,North,4.6,-,N/A,,Haze,360,2013-12-12 18:44:00
11:53 AM,46.9,15.1,28,30.19,-9999.0,NNW,3.5,-,N/A,,Clear,330,2013-12-12 18:53:00
12:53 PM,51.1,14.0,23,30.14,10.0,Calm,Calm,-,N/A,,Clear,0,2013-12-12 19:53:00
1:53 PM,53.1,12.0,20,30.12,10.0,North,-9999.0,-,N/A,,Unknown,0,2013-12-12 20:53:00
2:53 PM,52.0,12.0,20,30.09,10.0,ENE,5.8,-,N/A,,Clear,70,2013-12-12 21:53:00
3:53 PM,46.9,12.9,25,30.09,10.0,ENE,6.9,-,N/A,,Clear,70,2013-12-12 22:53:00
4:53 PM,41.0,12.0,31,30.09,10.0,ENE,9.2,-,N/A,,Clear,60,2013-12-12 23:53:00
5:53 PM,37.9,10.9,33,30.09,10.0,ESE,5.8,-,N/A,,Clear,110,2013-12-13 00:53:00
6:53 PM,37.9,10.9,33,30.07,10.0,ESE,3.5,-,N/A,,Clear,110,2013-12-13 01:53:00
7:53 PM,32.0,10.0,40,30.07,10.0,NNE,8.1,-,N/A,,Clear,20,2013-12-13 02:53:00
8:53 PM,30.0,10.0,43,30.05,10.0,NW,6.9,-,N/A,,Clear,310,2013-12-13 03:53:00
9:53 PM,28.0,10.0,47,30.02,10.0,WNW,5.8,-,N/A,,Clear,300,2013-12-13 04:53:00
10:53 PM,28.0,10.0,47,29.96,10.0,WNW,4.6,-,N/A,,Clear,290,2013-12-13 05:53:00
11:53 PM,26.1,9.0,49,29.92,10.0,West,11.5,-,N/A,,Clear,280,2013-12-13 06:53:00